Location: Llanfihangel-Ystrad
(52.1833°N, 4.1667°W)
Time: 02:42:53
(UTC+00:00)

GEOS 3 Rocket - Pass Details

Date: 17 February 2020
Orbit: 777 x 842 km, 115.0° (Epoch: 03 April)

Event Time Altitude Azimuth Distance (km) Brightness Sun altitude
Rises 05:50:10 0° 43° (NE) 3,357 7.5 -15.8°
Reaches altitude 10° 05:52:28 10° 42° (NE) 2,430 6.7 -15.4°
Maximum altitude 05:57:45 73° 319° (NW) 871 3.6 -14.6°
Enters shadow 06:02:34 13° 236° (SW) 2,253 5.4 -13.9°
